Weather in Myanaung

Myanmar     18°20′00″N   95°14′59″E
temp.,
°C
wind,
m/s
gust,
m/s
humid.,
%
clouds,
%
prec.,
mm/h
press.,
hPa
HPBL,
m
25 may, wed
wed2500:30+26ssw2485100 0.2 1007137
03:30+25ssw238692 0.0 100699
06:30+26s238655 0.0 1007119
09:30+27s238078 0.0 1008279
12:30+27ssw2377100 0.1 1006159
15:30+29w1370100 0.0 1005261
18:30+27ssw2276100 0.0 100543
21:30+27s237878 0.0 100780
26 may, thu
thu2600:30+26sw128058 0.0 100632
03:30+26w118098 0.0 100511
06:30+26s117737 0.0 100669
09:30+32sse235639 0.0 10071282
12:30+36wnw353951 0.0 10042290
15:30+36wnw66375 0.0 10022139
18:30+32w45524 0.0 1003368
21:30+29wsw24645 0.0 1005150
27 may, fri
fri2700:30+28w11705 0.0 100451
03:30+27sw227237 0.0 100347
06:30+28s11685 0.0 100489
09:30+33ssw245119 0.0 10051463
12:30+37w353533 0.0 10022830
15:30+36wnw77365 0.0 10002231
18:30+32w46504 0.0 1001959
21:30+30sw236229 0.0 1004323
28 may, sat
sat2800:30+28ssw2368100 0.0 1003170
03:30+28wsw127210 0.0 100262
06:30+28ssw12715 0.0 1003159
09:30+33sw135131 0.0 10041413
12:30+37w343790 0.1 10012642
15:30+37w763676 0.3 9992308
18:30+32wsw455298 0.3 1001964
21:30+30ssw346487 0.0 1004203
29 may, sun
sun2900:30+29ssw2368100 0.0 1003161
03:30+28ssw127298 0.3 1003116
06:30+29sw127297 0.3 1004165
09:30+31sw2360100 0.0 1005783
12:30+35s234792 0.3 10021615
15:30+36w554162 0.3 10002037
18:30+32wsw345496 1.2 1002420
21:30+30sw246311 0.1 1004235